Location: Kershaw
(34.5481°N, 80.5823°W)
Time: 07:04:02
(UTC+00:00)

Tiros 1 despin weight - Pass Details

Date: 06 October 2022
Orbit: 590 x 637 km, 48.2° (Epoch: 28 November)

Event Time Altitude Azimuth Distance (km) Brightness Sun altitude
Rises 20:44:58 0° 269° (W) 2,827 ? 25.7°
Reaches altitude 10° 20:47:35 10° 283° (WNW) 1,934 ? 25.2°
Maximum altitude 20:51:13 24° 338° (NNW) 1,253 ? 24.5°
Drops below altitude 10° 20:54:54 10° 33° (NNE) 1,962 ? 23.8°
Sets 20:57:36 0° 47° (NE) 2,878 ? 23.3°
